Terug naar catalogus

SL-24 R/B

ActiefPO
NORAD 28367·ROCKET BODY·🇷🇺 Russia

Gelanceerd Jun 29, 2004 vanaf Baikonur Cosmodrome

Loading…

Volgende Passages (komende 24 uur)

TLE

VersSource: Space-Track

Epoch: Sep 14, 2026, 07:50 UTC

1 28367U 04025B   26257.32676021  .00000051  00000-0  45940-4 0  9998
2 28367  98.2211 204.8463 0349259 354.1601 169.7068 13.88649978125299

Volg SL-24 R/B in realtime met AllMySat

Download on the App Store